JUGNU

Last updated on Wed Sep 09 2026 00:03:15 GMT+0000 (Coordinated Universal Time)

1 37839U 11058B 26251.45715708 .00000393 00000+0 65570-4 0 9999 2 37839 19.9597 162.5197 0018433 275.8988 241.3196 14.13796603770829
UTC large
Height (km)
Speed (km/s)
/
Latitude / Longitude
Inclination (degrees)
Orbital Period (minutes)
Azimuth
Elevation
Range (km)
Doppler Factor

Next 0 passes for location: London (51.5072 / 0.1276)

No passes found over London.